Location: Seasalter
(51.3333°N, 1.0167°E)
Time: 12:36:14
(UTC+00:00)

Cosmos 1484 Rocket - Pass Details

Date: 26 September 2023
Orbit: 490 x 533 km, 97.5° (Epoch: 29 November)

Event Time Altitude Azimuth Distance (km) Brightness Sun altitude
Rises 04:00:51 0° 17° (NNE) 2,592 6.8 -17.2°
Reaches altitude 10° 04:03:00 10° 23° (NNE) 1,700 5.9 -16.9°
Maximum altitude 04:06:33 50° 100° (E) 633 3.5 -16.4°
Drops below altitude 10° 04:10:04 10° 177° (S) 1,679 5.1 -15.8°
Enters shadow 04:11:50 - 182° (S) 2,416 5.9 -15.6°
